Regional Weather Roundup
Issued by NWS

Home | Current Version | Previous Version | Graphics & Text | Print | Product List | Glossary On
Versions: 1 2 3 4 5 6 7 8 9 10 11 12 13 14 15 16 17 18 19 20 21 22 23 24 25 26 27 28 29 30 31 32 33 34 35 36 37 38 39 40 41 42 43 44 45 46 47 48 49 50
000
ASUS43 KDMX 292301
RWRIA

WEATHER ROUNDUP FOR IOWA
NATIONAL WEATHER SERVICE DES MOINES IA
600 PM CDT MON MAY 29 2017

NOTE: "FAIR" INDICATES FEW OR NO CLOUDS BELOW 12,000 FEET WITH NO
SIGNIFICANT WEATHER AND/OR OBSTRUCTIONS TO VISIBILITY.

* - THESE STATIONS ARE NOT NWS STATIONS...THUS NOT UNDER NWS
QUALITY CONTROL.  THEY ALSO DO NOT REPORT WEATHER SUCH
AS PRECIPITATION OR FOG.

IAZ001>003-012>014-020>022-031>034-043>046-300000-
   NORTHWEST IOWA

CITY           SKY/WX    TMP DP  RH WIND       PRES   REMARKS
CARROLL *      MOSUNNY   72  41  33 NW20G31   29.95S
CHEROKEE *     MOSUNNY   65  42  43 NW17G25   29.97S
DENISON *      MOSUNNY   68  43  40 NW18G26   29.98F
LE MARS *      MOSUNNY   68  43  40 NW21G30   30.00S
ORANGE CITY *  CLOUDY    63  45  51 NW15G23   29.99R
SHELDON *      CLOUDY    64  41  42 NW22G28   29.97R
SIOUX CITY     MOSUNNY   67  44  43 NW17G31   29.99S
SPENCER        CLOUDY    65  46  50 NW16G30   29.96S
STORM LAKE *     N/A     68  41  37 NW21G33   29.96S
$$

IAZ055>058-069>071-079>083-090>094-300000-
   SOUTHWEST IOWA

CITY           SKY/WX    TMP DP  RH WIND       PRES   REMARKS
ATLANTIC *     MOSUNNY   70  41  35 NW16G24   29.97S
AUDUBON *      SUNNY     72  39  30 NW14G23   29.98S
CLARINDA *     MOSUNNY   75  37  25 NW13G26   30.00S
COUNCIL BLFS * SUNNY     72  37  28 NW12G25   29.99S
CRESTON *      MOSUNNY   72  36  26 NW24G33   29.98S
HARLAN  *      MOSUNNY   72  39  30 NW25G32   30.01S
LAMONI         SUNNY     75  39  27 NW17G28   29.96S
RED OAK *      SUNNY     73  36  25 NW16G23   29.99S
SHENANDOAH *   SUNNY     75  36  23 NW15G23   29.99S
$$

IAZ047>049-059>061-072>074-084-300000-
   CENTRAL IOWA

CITY           SKY/WX    TMP DP  RH WIND       PRES   REMARKS
AMES           MOSUNNY   71  43  36 W22G33    29.92S
ANKENY *       MOSUNNY   72  43  35 NW16      29.93F
BOONE *        PTSUNNY   70 -38   1 W22       29.92S
CHARITON *     SUNNY     73  37  27 W21G29    29.95S
DES MOINES     MOSUNNY   73  39  29 W16       29.92F
GRINNELL*      PTSUNNY   72  39  30 W22G28    29.92S
KNOXVILLE *    MOSUNNY   73  36  25 W21G31    29.92S
MARSHALLTOWN   MOSUNNY   68  44  42 NW23G33   29.90R
NEWTON *       MOSUNNY   72  41  33 NW20G26   29.91S
PELLA *        SUNNY     74  38  27 W20       29.93F
PERRY *        PTSUNNY   72  37  27 NW17G32   29.94S
$$

IAZ004>006-015-016-023>025-035-036-300000-
   NORTH CENTRAL IOWA

CITY           SKY/WX    TMP DP  RH WIND       PRES   REMARKS
ALGONA *       CLOUDY    63  46  55 NW17G24   29.94S
CLARION *      CLOUDY    66  41  39 NW25G33   29.93R
ESTHERVILLE    CLOUDY    61  48  62 NW16      29.94S
FORT DODGE *   CLOUDY    66  43  42 NW12G20   29.95S
MASON CITY     CLOUDY    66  44  45 NW22G32   29.93R
FOREST CITY *  PTSUNNY   63  34  34 NW23G30   29.92S
WEBSTER CITY * CLOUDY    68  41  37 NW23      29.92R
IOWA FALLS *     N/A     69  42  36 W24G31    29.92S
$$

IAZ007>011-017>019-026>030-037>042-050>054-066-300000-
   NORTHEAST IOWA

CITY           SKY/WX    TMP DP  RH WIND       PRES   REMARKS
CEDAR RAPIDS   PTSUNNY   72  44  36 W24G31    29.87S
CHARLES CITY * PTSUNNY   66  41  39 NW21G28   29.90R
CLINTON *      MOSUNNY   74  44  34 NW22G32   29.86S
DECORAH *      MOSUNNY   64  45  48 NW10G20   29.85R
DUBUQUE        MOSUNNY   70  44  39 W20G29    29.85S
MONTICELLO *   MOSUNNY   72  43  35 W18G26    29.85S
OELWEIN *      PTSUNNY   68  43  40 NW23      29.88R
WATERLOO       PTSUNNY   68  42  38 W17G26    29.88R
$$

IAZ064-065-067-068-078-300000-
   EAST CENTRAL IOWA

CITY           SKY/WX    TMP DP  RH WIND       PRES   REMARKS
DAVENPORT      SUNNY     74  40  29 W23G31    29.87S
IOWA CITY      SUNNY     75  44  33 NW17G29   29.89S
MT. PLEASANT * MOSUNNY   75  36  24 W16G25    29.91R
MUSCATINE *    SUNNY     75  41  29 W20G25    29.89R
QUAD CITIES    MOSUNNY   75  43  31 NW18G25   29.86S
$$

IAZ062-063-075>077-085>089-095>099-300000-
   SOUTHEAST IOWA

CITY           SKY/WX    TMP DP  RH WIND       PRES   REMARKS
BURLINGTON     MOSUNNY   76  42  29 W16G25    29.90R
FAIRFIELD *    MOSUNNY   73  37  27 W17G25    29.91S
FORT MADISON * SUNNY     77  43  29 W13G20    29.91S
KEOKUK *       MOSUNNY   77  43  29 W16G23    29.91R
OSKALOOSA *      N/A     74  38  26 W23G29    29.92S
OTTUMWA        SUNNY     74  39  28 W20G30    29.92R
WASHINGTON *   MOSUNNY   75  41  29 W17G24    29.91S
$$

ABBREVIATIONS USED IN REMARKS
   TC - TEMPERATURES IN CELSIUS
  WCI - WIND CHILL INDEX
   HX - HEAT INDEX
  VSB - VISIBILITY
$$





USA.gov is the U.S. government's official web portal to all federal, state and local government web resources and services.